Regional Weather Roundup
Issued by NWS

Home | Current Version | Previous Version | Graphics & Text | Print | Product List | Glossary On
Versions: 1 2 3 4 5 6 7 8 9 10 11 12 13 14 15 16 17 18 19 20 21 22 23 24 25 26 27 28 29 30 31 32 33 34 35 36 37 38 39 40 41 42 43 44 45 46 47 48 49 50
000
ASUS43 KFSD 301002
RWRSD

WEATHER ROUNDUP FOR SOUTH DAKOTA
NATIONAL WEATHER SERVICE SIOUX FALLS SD
500 AM CDT TUE SEP 30 2014

NOTE: "FAIR" INDICATES FEW OR NO CLOUDS BELOW 12,000 FEET WITH NO
SIGNIFICANT WEATHER AND/OR OBSTRUCTIONS TO VISIBILITY.


SDZ001>005-009-010-012>017-301100-
NORTHWEST AND NORTH CENTRAL SOUTH DAKOTA

CITY           SKY/WX    TMP DP  RH WIND       PRES   REMARKS
BUFFALO          N/A     51  51 100 NE13      29.63F
FAITH            N/A     57  56  96 E14G24    29.64F
MOBRIDGE       CLOUDY    55  50  83 E18G26    29.72F
$$

SDZ012>016-024>037-041>051-057-063-072>074-301100-
SOUTHWEST AND SOUTH CENTRAL SOUTH DAKOTA

CITY           SKY/WX    TMP DP  RH WIND       PRES   REMARKS
RAPID CTY ARPT CLOUDY    53  53 100 N17       29.57F FOG
PIERRE         CLOUDY    58  56  93 SE22G31   29.67F
CUSTER         LGT RAIN  49  48  97 N8        29.60F
ELLSWORTH AFB  CLOUDY    53  53 100 N18       29.58
PHILIP         CLOUDY    62  56  80 SE18G31   29.59F
PINE RIDGE     PTCLDY    54  49  83 SE21G32   29.42F
WINNER         LGT RAIN  63  60  90 SE20G30   29.68F FOG
$$

SDZ004>011-016>023-039-040-301100-
NORTHEAST SOUTH DAKOTA

CITY           SKY/WX    TMP DP  RH WIND       PRES   REMARKS
ABERDEEN       CLOUDY    53  48  83 E8        29.85F
WATERTOWN      MOCLDY    49  46  90 SE12G25   29.91F
SISSETON         N/A     46  44  93 SE15G22   29.96F
$$

SDZ017-020-022-023-036>040-048>070-301100-
SOUTHEAST SOUTH DAKOTA

CITY           SKY/WX    TMP DP  RH WIND       PRES   REMARKS
SIOUX FALLS    CLOUDY    53  49  86 E15       29.91F
HURON          CLOUDY    54  50  86 SE17      29.81F
CHAMBERLAIN    CLOUDY    58  56  91 E20G26    29.71F
MITCHELL       CLOUDY    54  51  90 SE14G23   29.83F
YANKTON        CLOUDY    57  55  94 E13       29.85F
$$

ABBREVIATIONS USED IN REMARKS
   TC - TEMPERATURE IN CELSIUS
  WCI - WIND CHILL INDEX
   HX - HEAT INDEX
  VSB - VISIBILITY



USA.gov is the U.S. government's official web portal to all federal, state and local government web resources and services.